Location: York
(31.8935°S, 116.7682°E)
Time: 23:02:23
(UTC+08:00)

Tiangong - Visible Passes

Search period start: 04 December 2021 00:00
Search period end: 14 December 2021 00:00
Orbit: 380 x 384 km, 41.5° (Epoch: 04 December)

Date Brightness Start Highest point End Pass type
(mag) Time Alt. Az. Time Alt. Az. Time Alt. Az.
10 Dec 3.2 04:13:27 10° N 04:15:48 19° NE 04:18:10 10° E visible
12 Dec 2.0 03:49:44 23° NNW 03:51:15 38° NE 03:54:15 10° ESE visible
13 Dec 3.6 02:51:55 16° ENE 02:51:55 16° ENE 02:53:06 10° E visible
13 Dec 1.7 04:24:14 10° WNW 04:27:21 51° SSW 04:30:29 10° SE visible
